SL-12 DEB, 43541

Orbit data source: Space-Track

SL-12 DEB, 43541 is space debris in HEO originally from a launch on Fri, 26 Oct 2007 UTC launched from the Tyuratam Missile And Space Complex (TTMTR). Debris objects in space refer to the collection of defunct objects orbiting the Earth. Examples of debris include non-operational satellites, rocket bodies, and fragments generated from explosions, collisions, or faulty payload assembly.

Loading next visibility...
Identifier
43541, 2007-052AH
Orbit
HEO
Country
Flag of CISCIS
Related business
Manufacturer
RKKE
Mission
Spacecraft
Bus & Motor
Unknown
Mass
Unknown
Launch date (UTC)
2007-10-26 (18 years ago)
Launch vehicle
Unknown
Launch site
Tyuratam Missile And Space Complex (TTMTR)
Object type
Payload
Rocket body
Debris
Shape & HBR
Unknown shape, 0.7 m
Radar Cross Section
Medium (>0.1 m² and <1 m²)

Expand to show TLE details & history
Last TLE update: 20 hours ago

TLE from 20 hours ago
0 SL-12 DEB
1 43541U 07052AH  25310.79147349  .00000819  00000-0  31359-2 0  9997
2 43541  65.2035 356.5199 5687542 221.2161  77.9103  4.25989565114174
Epoch: 2025-11-06T18:59Z
TLE epoch observation values (Epoch: 2025-11-06T18:59:43.309Z)
Latitude
0.00006°
Longitude
25.35756°
Altitude
12,635.833 km
Speed
4.139 km/s
True Right ascension
23h 46m 07s
True Declination
0° 00' 00"
Sunlit
Object was in daylight at epoch
Visualization orbit readout
Latitude
Unknown
Longitude
Unknown
Altitude
Unknown
Speed
Unknown
Apparent Right ascension
Unknown
Apparent Declination
Unknown
Sunlit
N/A
Visualization observer readout
Local Sidereal Time
10:51:29
Azimuth
Unknown
Elevation
Unknown
Doppler factor
Unknown
Orbital elements
Apogee altitude
18,836.901 km
Perigee altitude
553.401 km
Semi-major axis
16,073.288 km
Eccentricity
0.56875
Inclination
65.2035°
RAAN
356.5199°
Arg. of periapsis
221.2161°
True anomaly
138.82699°
Mean anomaly
77.9103°
Eccentric anomaly
108.76531°
Mean motion
1.06509 °/min
Orbital period
338 mins
BSTAR
0.0031359
Loading maneuver chart data...
Computing Atmospheric mass density...
Loading historical data...
Loading historical data...
Loading historical data...
Loading historical data...
Loading historical data...
Loading historical data...
Loading historical data...

Documentation

Showing up to 5 results
|